SCP
0 0 0 0 0 0 0 0 0 0 0 0 0 0 0 0 0 0 0 0 0 0 0 0 0 0 0 0 0 0 0 0 0 0 0 0 0 0 0 0 0 0 0
0 0 0 0 0 0 0 0 0 0 0 0 0 0 0 0 0 0 0 0 0 0 0 0 0 0 0 0 0 0 0 0 0 0 0 0 0 0 0 0 0 0 0
0 0 0 0 0 0 0 0 0 0 0 0 0 0 0 0 0 0 0 0 0 0 0 0 0 0 0 0 0 0 0 0 0 0 0 0 0 0 0 0 0 0 0
0 0 0 0 0 0 0 0 0 0 0 0 0 0 0 0 0 0 0 0 0 0 0 0 0 0 0 0 0 0 0 0 0 0 0 0 0 0 0 0 0 0 0
0 0 0 0 0 0 0 0 0 0 0 0 0 0 0 0 0 0 0 0 0 0 0 0 0 0 0 0 0 0 0 0 0 0 0 0 0 0 0 0 0 0 0
0 0 0 0 0 0 0 0 0 0 0 0 0 0 0 0 0 0 0 0 0 0 0 0 0 0 0 0 0 0 0 0 0 0 0 0 0 0 0 0 0 0 0
0 0 0 0 0 0 0 0 0 0 0 0 0 0 0 0 0 0 0 0 0 0 0 0 0 0 0 0 0 0 0 0 0 0 0 0 0 0 0 0 0 0 0
0 0 0 0 0 0 0 0 0 0 0 0 0 0 0 0 0 0 0 0 0 0 0 0 0 0 0 0 0 0 0 0 0 0 0 0 0 0 0 0 0 0 0
0 0 0 0 0 0 0 0 0 0 0 0 0 0 0 0 0 0 0 0 0 0 0 0 0 0 0 0 0 0 0 0 0 0 0 0 0 0 0 0 0 0 0
0 0 0 0 0 0 0 0 0 0 0 0 0 0 0 0 0 0 0 0 0 0 0 0 0 0 0 0 0 0 0 0 0 0 0 0 0 0 0 0 0 0 0
0 0 0 0 0 0 0 0 0 0 0 0 0 0 0 0 0 0 0 0 0 0 0 0 0 0 0 0 0 0 0 0 0 0 0 0 0 0 0 0 0 0 0
0 0 0 0 0 0 0 0 0 0 0 0 0 0 0 0 0 0 0 0 0 0 0 0 0 0 0 0 0 0 0 0 0 0 0 0 0 0 0 0 0 0 0
0 0 0 0 0 0 0 0 0 0 0 0 0 0 0 0 0 0 0 0 0 0 0 0 0 0 0 0 0 0 0 0 0 0 0 0 0 0 0 0 0 0 0
0 0 0 0 0 0 0 0 0 0 0 0 0 0 0 0 0 0 0 0 0 0 0 0 0 0 0 0 0 0 0 0 0 0 0 0 0 0 0 0 0 0 0
0 0 0 0 0 0 0 0 0 0 0 0 0 0 0 0 0 0 0 0 0 0 0 0 0 0 0 0 0 0 0 0 0 0 0 0 0 0 0 0 0 0 0
0 0 0 0 0 0 0 0 0 0 0 0 0 0 0 0 0 0 0 0 0 0 0 0 0 0 0 0 0 0 0 0 0 0 0 0 0 0 0 0 0 0 0
0 0 0 0 0 0 0 0 0 0 0 0 0 0 0 0 0 0 0 0 0 0 0 0 0 0 0 0 0 0 0 0 0 0 0 0 0 0 0 0 0 0 0
0 0 0 0 0 0 0 0 0 0 0 0 0 0 0 0 0 0 0 0 0 0 0 0 0 0 0 0 0 0 0 0 0 0 0 0 0 0 0 0 0 0 0
0 0 0 0 0 0 0 0 0 0 0 0 0 0 0 0 0 0 0 0 0 0 0 0 0 0 0 0 0 0 0 0 0 0 0 0 0 0 0 0 0 0 0
0 0 0 0 0 0 0 0 0 0 0 0 0 0 0 0 0 0 0 0 0 0 0 0 0 0 0 0 0 0 0 0 0 0 0 0 0 0 0 0 0 0 0
0 0 0 0 0 0 0 0 0 0 0 0 0 0 0 0 0 0 0 0 0 0 0 0 0 -0 0 0 0 0 0 0 0 0 0 0 0 0 0 0 0 0 0
0 0 0 0 0 0 0 0 0 0 0 0 0 0 0 0 0 0 0 0 0 0 0 0 0 -0 0 0 0 0 0 0 0 0 0 0 0 0 0 0 0 0 0
0 0 0 0 0 0 0 0 0 0 0 0 0 0 0 0 0 0 0 0 0 0 0 0 0 0 0 0 0 0 0 0 0 0 0 0 0 0 0 0 0 0 0
0 0 0 0 0 0 0 0 0 0 0 0 0 0 0 0 0 0 0 0 0 0 0 0 0 0 0 0 0 0 0 0 0 0 0 0 0 0 0 0 0 0 0
0 0 0 0 0 0 0 0 0 0 0 0 0 0 0 0 0 0 0 0 0 0 0 0 0 0 0 0 0 0 0 0 0 0 0 0 0 0 0 0 0 0 0
0 0 0 0 0 0 0 0 0 0 0 0 0 0 0 0 0 0 0 0 0 0 0 0 0 0 0 0 -0 0 0 0 0 0 0 0 0 0 0 0 0 0 0
Wind_Speed
3 3 3 3 3 3 3 3 3 3 4 4 4 3 3 3 3 2 2 2 2 2 2 4 5 5 5 6 6 5 6 5 6 3 2 2 4 5 5 5 5 6 5
3 3 3 3 3 3 2 2 3 3 3 3 3 3 3 3 3 3 2 2 2 2 2 3 4 4 6 5 6 7 7 7 6 5 3 3 4 4 4 5 5 5 5
4 4 3 3 3 2 1 1 2 2 2 3 3 3 3 3 3 3 3 3 3 3 2 3 3 3 4 4 6 6 6 7 5 4 3 2 2 2 3 3 4 3 5
3 3 3 2 2 1 1 1 1 1 2 3 3 4 4 4 4 4 4 3 3 3 2 2 2 3 3 4 4 5 5 6 6 5 4 3 2 2 2 2 3 4 4
5 4 3 3 3 3 2 2 1 1 2 3 4 4 4 3 4 5 5 5 4 3 3 3 3 3 4 3 3 3 4 4 5 5 4 3 3 3 3 3 3 2 3
8 7 6 5 5 5 5 4 3 3 2 2 3 3 4 4 6 8 7 5 5 4 3 3 3 3 4 4 4 5 6 5 4 4 4 4 4 4 3 3 3 2 2
9 8 7 7 6 6 5 5 4 4 3 2 2 2 3 4 6 7 9 5 5 4 4 3 3 3 3 2 3 3 4 6 6 4 3 4 4 5 5 4 3 3 3
8 7 7 7 7 6 6 6 5 4 3 3 3 3 2 4 5 5 6 5 4 4 4 4 4 4 3 3 3 2 3 3 4 4 4 3 3 4 4 4 3 2 2
7 7 7 6 6 7 7 6 5 4 5 4 4 5 4 5 8 5 2 3 3 3 3 4 4 4 7 6 4 4 4 4 5 7 6 5 6 7 5 3 2 2 2
6 5 5 6 6 6 6 5 4 4 5 5 6 7 7 6 10 9 3 1 1 1 1 2 4 5 6 6 5 5 6 4 3 3 4 6 5 6 9 6 4 4 3
4 5 6 6 6 6 5 5 5 5 6 6 6 6 7 9 11 13 8 2 0 1 1 1 2 4 4 4 6 5 6 3 2 3 2 2 2 2 3 4 5 4 4
3 4 5 6 6 5 6 6 6 6 6 6 6 6 6 7 9 11 12 7 3 1 1 2 2 4 3 1 2 4 5 3 2 2 1 1 1 1 1 1 1 2 2
3 4 4 4 5 5 6 6 5 6 5 5 5 5 6 5 7 12 12 11 8 2 1 2 3 4 4 4 4 3 3 3 2 2 1 1 0 1 1 1 2 1 1
2 2 3 3 4 5 5 5 5 5 5 5 6 6 5 5 5 6 6 5 6 4 3 4 6 6 4 4 5 4 3 2 2 1 1 1 1 1 1 1 1 1 1
1 1 2 2 2 3 3 3 4 3 4 4 4 4 5 5 7 10 6 4 3 2 2 2 3 3 3 3 3 3 3 3 3 2 2 1 1 1 1 1 1 1 0
0 1 1 2 1 1 1 2 2 2 4 5 6 5 3 5 9 8 9 8 7 5 4 3 3 3 3 3 3 3 3 3 2 2 2 1 1 1 0 0 0 0 1
1 0 1 1 1 1 1 2 2 3 3 4 8 9 8 9 10 9 9 9 10 8 6 5 5 4 4 4 4 3 3 3 2 3 2 2 1 1 1 0 0 1 1
2 1 1 1 1 2 2 2 2 2 3 4 6 9 11 12 13 13 10 8 8 8 6 6 6 6 5 5 5 4 4 4 4 4 3 3 3 2 1 1 1 1 2
3 2 1 1 2 2 2 3 3 3 3 3 4 5 9 9 11 14 11 7 6 6 6 6 6 6 5 5 5 5 5 4 4 4 4 4 3 3 2 2 2 2 2
2 3 3 2 2 2 2 3 3 3 3 3 4 4 4 5 6 7 6 6 5 5 5 5 5 5 5 5 5 4 4 4 5 4 4 3 3 2 2 3 2 2 2
3 3 4 3 2 2 2 2 2 2 2 3 3 4 5 4 4 5 5 5 5 5 5 5 5 5 5 5 4 5 5 4 4 4 4 4 3 3 3 3 3 3 3
4 3 2 2 2 2 2 2 2 2 2 2 2 3 6 4 4 4 4 5 5 5 4 4 4 4 5 5 5 4 4 5 5 5 4 4 4 3 3 3 3 3 3
4 4 3 2 2 2 3 2 2 2 1 2 2 2 3 3 3 3 4 4 4 4 4 4 4 4 4 4 4 4 4 4 4 4 4 4 4 4 3 3 4 4 3
4 4 4 3 2 2 2 2 2 2 2 2 2 2 2 2 3 3 3 3 4 4 4 4 4 5 6 5 4 3 3 4 4 3 4 3 3 3 3 3 3 4 3
3 4 4 3 3 3 2 2 2 2 2 2 2 2 2 2 2 2 3 3 4 4 5 4 3 4 6 6 6 5 7 8 6 4 3 3 3 4 3 3 3 3 3
3 4 3 3 3 3 3 3 3 3 2 2 2 2 2 2 2 2 2 3 3 3 3 3 4 5 6 5 6 7 8 8 8 8 4 3 4 4 4 4 5 4 4
Wind_Direction
163 161 157 159 166 160 155 160 159 157 159 162 161 155 156 157 156 156 174 177 199 221 226 221 225 215 215 213 207 203 203 195 218 233 222 197 185 198 192 190 197 206 218
168 155 153 137 125 119 127 143 145 156 169 172 166 168 174 174 174 177 187 185 193 217 234 237 242 230 224 218 212 211 208 203 207 217 211 196 200 195 182 187 197 208 214
161 146 128 113 107 111 114 117 132 157 180 182 183 193 198 195 195 200 199 199 202 215 221 228 242 240 240 232 222 217 211 208 201 196 194 177 167 150 146 183 196 206 214
138 131 127 115 111 118 109 119 155 186 203 208 212 215 215 210 207 206 203 206 210 215 216 222 235 238 251 248 234 224 213 208 200 194 184 169 156 147 146 165 195 207 221
75 65 48 37 40 31 26 7 330 262 241 226 227 228 224 216 217 207 203 205 206 212 216 222 237 251 261 252 234 217 209 210 201 199 192 172 166 159 181 175 193 190 225
59 50 36 28 26 18 5 358 351 333 312 265 237 234 234 235 234 220 203 200 202 208 220 231 249 263 280 287 257 228 208 208 204 200 198 194 186 172 157 162 159 154 246
50 42 32 28 26 14 5 9 4 350 342 322 302 267 257 265 267 250 218 198 200 207 213 223 244 248 253 259 271 259 240 230 210 190 194 193 176 176 164 165 176 183 213
40 34 27 25 21 13 16 15 6 359 358 352 349 339 318 318 315 280 233 202 203 210 211 215 231 254 248 231 227 240 246 238 218 208 198 193 179 170 169 169 176 201 225
29 23 17 16 16 17 17 10 6 9 14 13 9 12 13 356 358 342 234 178 199 217 218 219 227 245 257 241 217 232 250 256 249 235 218 206 197 194 180 160 175 199 243
13 10 9 15 21 20 16 13 9 18 24 30 37 32 28 16 14 18 50 131 183 225 245 253 250 253 261 243 211 215 238 249 234 237 236 235 226 222 212 205 199 209 220
4 18 21 20 25 26 27 26 25 31 37 35 36 30 27 19 16 23 30 48 41 255 275 288 292 299 288 251 211 211 230 223 204 213 223 227 218 215 215 211 206 206 208
30 35 29 25 27 29 36 32 29 31 36 27 21 17 13 10 13 15 20 21 27 18 305 306 315 334 353 357 207 219 219 191 153 152 164 182 185 193 184 175 195 210 221
44 36 28 30 32 31 37 33 30 30 32 24 19 13 1 359 2 10 12 13 15 17 344 333 1 33 45 42 51 87 116 127 133 144 165 172 129 102 89 73 54 51 23
52 24 18 24 30 35 37 35 36 28 25 21 16 9 359 356 359 357 354 357 5 17 22 42 50 54 55 54 50 49 57 89 111 122 118 97 82 85 81 80 80 55 24
62 17 13 19 34 47 46 37 31 30 18 10 4 356 354 354 344 343 348 349 350 0 20 34 38 38 38 40 46 44 44 54 66 73 87 89 84 81 76 90 109 112 85
90 4 7 10 31 60 56 36 24 5 4 10 6 359 335 333 340 0 13 21 27 37 46 45 45 47 44 43 51 46 41 42 44 57 66 67 71 67 50 63 126 241 276
160 111 37 31 44 57 68 54 23 355 359 15 16 16 20 16 21 23 27 40 41 44 50 44 41 45 46 47 46 47 40 31 37 51 54 46 40 38 36 353 308 290 289
147 124 111 69 68 74 82 80 63 40 13 354 358 16 28 37 37 34 35 46 43 42 43 43 41 41 42 44 43 42 41 36 36 39 38 32 26 23 14 356 336 313 302
149 135 105 90 86 86 85 78 67 56 43 16 4 5 14 30 39 37 40 50 51 46 43 43 41 41 40 40 40 41 44 42 36 35 32 26 18 16 7 352 336 322 308
152 154 130 109 96 92 86 83 72 61 49 37 28 9 2 32 40 34 38 43 49 47 44 44 41 41 39 38 37 36 36 35 29 27 20 14 7 3 352 340 331 320 307
142 137 127 106 105 112 110 105 98 84 66 50 33 30 53 57 53 46 42 41 42 42 42 42 39 34 32 30 29 30 31 25 18 10 4 360 356 352 345 338 331 328 323
141 138 133 133 128 125 125 125 118 105 86 71 42 40 54 59 54 50 47 44 41 39 36 42 45 38 29 24 20 20 19 14 6 356 351 349 349 348 347 349 350 348 348
144 142 137 134 133 136 127 130 133 130 116 102 87 69 61 60 56 55 53 49 44 38 33 38 43 33 23 20 18 14 5 353 341 337 339 343 348 351 355 358 356 354 356
155 153 151 149 145 148 156 159 158 156 151 138 121 106 93 82 75 71 65 61 56 43 34 34 35 28 21 13 4 358 349 338 325 323 335 343 351 355 360 4 359 356 357
163 161 162 165 167 168 169 170 170 170 166 161 150 138 125 110 96 88 81 75 68 52 40 31 22 15 10 7 1 355 356 8 16 6 359 12 15 11 11 10 8 6 6
177 173 171 170 173 174 176 179 182 179 175 171 165 158 148 132 119 107 98 89 77 56 38 25 17 16 8 0 358 4 16 26 30 34 36 37 36 29 26 27 24 22 17